• în Republica Moldova
  • Lista ţărilor
  • Pe 7 zile
  • Temperatura apei
  • Hartă satelitară
  • Meteo pe hartă
  • Widget-uri
  • user-avatar
    Intrare

    Meteo pe oră la Brisbane

    Astăzi, 26 Mai, Vineri

    Timp Temperatura Precipitaţii Vânt Presiune Umiditate
    00:00 +16°C° 0 mm 2 m/s 763 mmHg 91%
    01:00 +16°C° 0 mm 2 m/s 763 mmHg 92%
    02:00 +16°C° 0 mm 2 m/s 763 mmHg 92%
    03:00 +15°C° 0 mm 2 m/s 763 mmHg 93%
    04:00 +15°C° 0 mm 2 m/s 762 mmHg 93%
    05:00 +15°C° 0 mm 2 m/s 763 mmHg 93%
    06:00 +15°C° 0 mm 2 m/s 763 mmHg 93%
    07:00 +15°C° 0 mm 2 m/s 763 mmHg 92%
    08:00 +18°C° 0 mm 2 m/s 763 mmHg 85%
    09:00 +20°C° 0 mm 2 m/s 764 mmHg 77%
    10:00 +24°C° 0 mm 1 m/s 764 mmHg 66%
    11:00 +24°C° 0 mm 1 m/s 763 mmHg 62%
    12:00 +25°C° 0 mm 1 m/s 763 mmHg 59%
    13:00 +25°C° 0 mm 1 m/s 762 mmHg 56%
    14:00 +25°C° 0 mm 2 m/s 762 mmHg 60%
    15:00 +24°C° 0 mm 2 m/s 762 mmHg 63%
    16:00 +23°C° 0 mm 2 m/s 762 mmHg 68%
    17:00 +21°C° 0 mm 2 m/s 762 mmHg 75%
    18:00 +19°C° 0 mm 2 m/s 762 mmHg 82%
    19:00 +18°C° 0 mm 3 m/s 763 mmHg 89%
    20:00 +17°C° 0 mm 2 m/s 763 mmHg 89%
    21:00 +16°C° 0 mm 2 m/s 763 mmHg 90%
    22:00 +15°C° 0 mm 1 m/s 763 mmHg 91%
    23:00 +15°C° 0 mm 1 m/s 763 mmHg 91%

    Mâine, 27 Mai, Sâmbătă

    Timp Temperatura Precipitaţii Vânt Presiune Umiditate
    00:00 +15°C° 0 mm 1 m/s 763 mmHg 91%
    01:00 +15°C° 0 mm 1 m/s 764 mmHg 91%
    02:00 +15°C° 0 mm 1 m/s 764 mmHg 92%
    03:00 +15°C° 0 mm 2 m/s 764 mmHg 93%
    04:00 +15°C° 0 mm 2 m/s 764 mmHg 94%
    05:00 +15°C° 0,1 mm 2 m/s 764 mmHg 94%
    06:00 +15°C° 0,1 mm 2 m/s 764 mmHg 94%
    07:00 +15°C° 0,1 mm 2 m/s 764 mmHg 93%
    08:00 +17°C° 0,1 mm 2 m/s 764 mmHg 86%
    09:00 +20°C° 0,1 mm 2 m/s 764 mmHg 78%
    10:00 +23°C° 0,1 mm 2 m/s 764 mmHg 70%
    11:00 +23°C° 0,1 mm 2 m/s 764 mmHg 67%
    12:00 +24°C° 0,1 mm 2 m/s 763 mmHg 63%
    13:00 +25°C° 0,1 mm 3 m/s 763 mmHg 60%
    14:00 +24°C° 0,2 mm 3 m/s 762 mmHg 64%
    15:00 +22°C° 0,2 mm 3 m/s 762 mmHg 68%
    16:00 +22°C° 0,2 mm 3 m/s 762 mmHg 72%
    17:00 +20°C° 0 mm 2 m/s 762 mmHg 78%
    18:00 +18°C° 0 mm 2 m/s 763 mmHg 84%
    19:00 +16°C° 0 mm 1 m/s 763 mmHg 90%
    20:00 +15°C° 0 mm 1 m/s 763 mmHg 91%
    21:00 +15°C° 0 mm 1 m/s 763 mmHg 91%
    22:00 +14°C° 0 mm 1 m/s 763 mmHg 91%
    23:00 +14°C° 0,1 mm 1 m/s 763 mmHg 92%

    Poimâine, 28 Mai, Duminică

    Timp Temperatura Precipitaţii Vânt Presiune Umiditate
    00:00 +14°C° 0,1 mm 1 m/s 763 mmHg 92%
    01:00 +14°C° 0,1 mm 2 m/s 763 mmHg 92%
    02:00 +14°C° 0 mm 2 m/s 762 mmHg 93%
    03:00 +14°C° 0 mm 2 m/s 762 mmHg 93%
    04:00 +14°C° 0 mm 2 m/s 762 mmHg 93%
    05:00 +14°C° 0 mm 2 m/s 762 mmHg 93%
    06:00 +15°C° 0 mm 2 m/s 762 mmHg 92%
    07:00 +15°C° 0 mm 2 m/s 762 mmHg 92%
    08:00 +17°C° 0 mm 3 m/s 762 mmHg 83%
    09:00 +20°C° 0 mm 3 m/s 762 mmHg 75%
    10:00 +22°C° 0 mm 3 m/s 763 mmHg 66%
    11:00 +24°C° 0 mm 3 m/s 762 mmHg 61%
    12:00 +25°C° 0 mm 4 m/s 761 mmHg 55%
    13:00 +27°C° 0 mm 4 m/s 760 mmHg 49%
    14:00 +26°C° 0,1 mm 4 m/s 760 mmHg 54%
    15:00 +25°C° 0,1 mm 3 m/s 760 mmHg 59%
    16:00 +25°C° 0,1 mm 3 m/s 760 mmHg 64%
    17:00 +22°C° 0,2 mm 3 m/s 760 mmHg 69%
    18:00 +20°C° 0,2 mm 3 m/s 761 mmHg 74%
    19:00 +17°C° 0,2 mm 3 m/s 761 mmHg 79%
    20:00 +17°C° 0,2 mm 3 m/s 761 mmHg 80%
    21:00 +17°C° 0,2 mm 3 m/s 762 mmHg 80%
    22:00 +16°C° 0,2 mm 3 m/s 762 mmHg 81%
    23:00 +16°C° 0,1 mm 3 m/s 762 mmHg 81%

    29 Mai, Luni

    Timp Temperatura Precipitaţii Vânt Presiune Umiditate
    00:00 +15°C° 0,1 mm 4 m/s 762 mmHg 81%
    01:00 +15°C° 0,1 mm 4 m/s 761 mmHg 81%
    02:00 +14°C° 0 mm 3 m/s 761 mmHg 80%
    03:00 +14°C° 0 mm 3 m/s 761 mmHg 79%
    04:00 +13°C° 0 mm 3 m/s 761 mmHg 79%
    05:00 +13°C° 0 mm 3 m/s 762 mmHg 77%
    06:00 +13°C° 0 mm 3 m/s 762 mmHg 75%
    07:00 +14°C° 0 mm 2 m/s 763 mmHg 73%
    08:00 +16°C° 0 mm 3 m/s 763 mmHg 66%
    09:00 +19°C° 0 mm 3 m/s 763 mmHg 59%
    10:00 +21°C° 0 mm 3 m/s 763 mmHg 51%
    11:00 +22°C° 0 mm 3 m/s 763 mmHg 47%
    12:00 +24°C° 0 mm 3 m/s 762 mmHg 43%
    13:00 +25°C° 0 mm 3 m/s 762 mmHg 39%
    14:00 +25°C° 0 mm 3 m/s 762 mmHg 43%
    15:00 +24°C° 0 mm 2 m/s 762 mmHg 47%
    16:00 +23°C° 0 mm 2 m/s 762 mmHg 51%
    17:00 +20°C° 0 mm 3 m/s 762 mmHg 52%
    18:00 +18°C° 0 mm 3 m/s 763 mmHg 52%
    19:00 +16°C° 0 mm 3 m/s 763 mmHg 53%
    20:00 +14°C° 0 mm 3 m/s 764 mmHg 55%
    21:00 +14°C° 0 mm 3 m/s 764 mmHg 57%
    22:00 +13°C° 0 mm 3 m/s 765 mmHg 59%
    23:00 +12°C° 0 mm 3 m/s 765 mmHg 60%

    30 Mai, Marţi

    Timp Temperatura Precipitaţii Vânt Presiune Umiditate
    00:00 +12°C° 0 mm 3 m/s 764 mmHg 61%
    01:00 +11°C° 0 mm 3 m/s 764 mmHg 62%
    02:00 +11°C° 0 mm 3 m/s 764 mmHg 62%
    03:00 +11°C° 0 mm 3 m/s 764 mmHg 62%
    04:00 +11°C° 0 mm 3 m/s 764 mmHg 63%
    05:00 +11°C° 0 mm 3 m/s 764 mmHg 65%
    06:00 +11°C° 0 mm 3 m/s 765 mmHg 67%
    07:00 +11°C° 0 mm 3 m/s 765 mmHg 70%
    08:00 +14°C° 0 mm 2 m/s 765 mmHg 67%
    09:00 +17°C° 0 mm 2 m/s 765 mmHg 65%
    10:00 +20°C° 0 mm 2 m/s 765 mmHg 63%
    11:00 +21°C° 0 mm 2 m/s 765 mmHg 58%
    12:00 +23°C° 0 mm 1 m/s 764 mmHg 54%
    13:00 +24°C° 0 mm 1 m/s 763 mmHg 49%
    14:00 +24°C° 0 mm 1 m/s 763 mmHg 52%
    15:00 +23°C° 0 mm 1 m/s 763 mmHg 56%
    16:00 +23°C° 0 mm 1 m/s 763 mmHg 59%
    17:00 +20°C° 0 mm 1 m/s 763 mmHg 66%
    18:00 +17°C° 0 mm 2 m/s 763 mmHg 74%
    19:00 +15°C° 0 mm 2 m/s 764 mmHg 81%
    20:00 +14°C° 0 mm 2 m/s 764 mmHg 82%
    21:00 +13°C° 0 mm 2 m/s 764 mmHg 84%
    22:00 +13°C° 0 mm 1 m/s 764 mmHg 85%
    23:00 +13°C° 0 mm 2 m/s 764 mmHg 84%

    31 Mai, Miercuri

    Timp Temperatura Precipitaţii Vânt Presiune Umiditate
    00:00 +13°C° 0 mm 2 m/s 764 mmHg 84%
    01:00 +13°C° 0 mm 2 m/s 763 mmHg 83%
    02:00 +12°C° 0 mm 2 m/s 763 mmHg 81%
    03:00 +12°C° 0 mm 2 m/s 763 mmHg 78%
    04:00 +12°C° 0 mm 2 m/s 763 mmHg 75%
    05:00 +12°C° 0 mm 2 m/s 763 mmHg 72%
    06:00 +12°C° 0 mm 2 m/s 763 mmHg 68%
    07:00 +12°C° 0 mm 2 m/s 764 mmHg 64%
    08:00 +15°C° 0 mm 2 m/s 764 mmHg 58%
    09:00 +18°C° 0 mm 2 m/s 764 mmHg 51%
    10:00 +21°C° 0 mm 2 m/s 764 mmHg 44%
    11:00 +23°C° 0 mm 2 m/s 763 mmHg 42%
    12:00 +22°C° 0 mm 3 m/s 762 mmHg 40%
    13:00 +24°C° 0 mm 3 m/s 762 mmHg 38%
    14:00 +24°C° 0 mm 3 m/s 762 mmHg 42%
    15:00 +22°C° 0 mm 3 m/s 762 mmHg 46%
    16:00 +22°C° 0 mm 3 m/s 762 mmHg 51%
    17:00 +20°C° 0 mm 4 m/s 762 mmHg 50%
    18:00 +18°C° 0 mm 4 m/s 763 mmHg 50%
    19:00 +15°C° 0 mm 5 m/s 764 mmHg 49%
    20:00 +14°C° 0 mm 5 m/s 764 mmHg 52%
    21:00 +13°C° 0 mm 6 m/s 764 mmHg 55%
    22:00 +11°C° 0 mm 6 m/s 764 mmHg 58%
    23:00 +10°C° 0 mm 5 m/s 764 mmHg 62%
    Arată mai mult